Tracking 27401 objects as of 4-Jun-2023
HD Live streaming from Space Station
objects crossing your sky now

IUS R/B(2)

Track IUS R/B(2) now!


NORAD ID: 23615
Int'l Code: 1995-035D
Perigee: 35,670.4 km
Apogee: 35,787.7 km
Inclination: 16.4 °
Period: 1,432.8 minutes
Semi major axis: 42100 km
RCS: 5.3271 m2 (large)
Launch date: July 13, 1995
Source: United States (US)
Launch site: AIR FORCE EASTERN TEST RANGE (AFETR)

Note: This is a ROCKET BODY
Your satellite tracking list
Your tracking list is empty




NASA's NSSDC Master Catalog

Two Line Element Set (TLE):
1 23615U 95035D   23153.78748316 -.00000363  00000-0  00000-0 0  9990
2 23615  16.4120 351.6313 0013924 135.0129 155.5198  1.00502937102245
Source of the keplerian elements: AFSPC